Regional Weather Roundup
Issued by NWS Little Rock, AR

Home | Current Version | Previous Version | Text Only | Print | Product List | Glossary On
Versions: 1 2 3 4 5 6 7 8 9 10 11 12 13 14 15 16 17 18 19 20 21 22 23 24 25 26 27 28 29 30 31 32 33 34 35 36 37 38 39 40 41 42 43 44 45 46 47 48 49 50
000
ASUS44 KLZK 291305
RWRLZK

WEATHER ROUNDUP FOR ARKANSAS
NATIONAL WEATHER SERVICE LITTLE ROCK AR
800 AM CDT FRI MAY 29 2015

NOTE: "FAIR" INDICATES FEW OR NO CLOUDS BELOW 12,000 FEET WITH NO
SIGNIFICANT WEATHER AND/OR OBSTRUCTIONS TO VISIBILITY.

ARZ001-003-010-029-291400-
NORTHWEST ARKANSAS

CITY           SKY/WX    TMP DP  RH WIND       PRES   REMARKS
FAYETTEVILLE   LGT RAIN  67  67 100 CALM      30.04R
FORT SMITH     CLOUDY    69  66  90 E6        30.01R THUNDER
HARRISON       MOSUNNY   72  66  81 S8        30.05R
BENTONVILLE    CLOUDY    70  63  78 SW5       30.05R
ROGERS         RAIN      69  66  90 S3        30.06R FOG
SILOAM SPGS    CLOUDY    66  61  82 CALM      30.05R
HIGHFILL       LGT RAIN  70  66  87 S6        30.04R
SPRINGDALE     RAIN      70  66  88 S6G13     30.06R
$$

ARZ004-005-016-291400-
NORTH CENTRAL ARKANSAS

CITY           SKY/WX    TMP DP  RH WIND       PRES   REMARKS
BATESVILLE     SUNNY     72  66  83 E3        30.05R
FLIPPIN        MOSUNNY   70  64  83 CALM      30.03R
MTN HOME       MOSUNNY   69  65  86 SE6       30.04R
$$

ARZ040-041-291400-
WEST CENTRAL ARKANSAS

CITY           SKY/WX    TMP DP  RH WIND       PRES   REMARKS
MENA           CLOUDY    73  68  83 CALM      30.02S
MOUNT IDA      CLOUDY    72  69  90 CALM      30.01R
$$

ARZ009-017-025-026-028-291400-
NORTHEAST ARKANSAS

CITY           SKY/WX    TMP DP  RH WIND       PRES   REMARKS
CORNING        FAIR      73  72  94 S5        30.07R
JONESBORO      SUNNY     72  69  90 SE6       30.06R
NEWPORT        SUNNY     74  74 100 S8        30.06R
WALNUT RIDGE   SUNNY     72  66  83 S5        30.06R
BLYTHEVILLE    PTSUNNY   71  69  93 SE9       30.08R
$$

ARZ022-023-033-042-044-291400-
CENTRAL ARKANSAS

CITY           SKY/WX    TMP DP  RH WIND       PRES   REMARKS
LITTLE ROCK    PTSUNNY   72  67  84 CALM      30.04R
N LITTLE ROCK    N/A     70  69  96 SE5       30.04R
JACKSONVILLE   MOSUNNY   72  69  92 VRB1      30.04R
SEARCY         SUNNY     72  69  90 CALM      30.06R
HOT SPRINGS    CLOUDY    71  67  87 E6        30.04R
RUSSELLVILLE   PTSUNNY   71  68  90 CALM      30.03R
CLINTON        PTSUNNY   64  64 100 CALM      30.07R
$$

ARZ036-291400-
EAST ARKANSAS

CITY           SKY/WX    TMP DP  RH WIND       PRES   REMARKS
WEST MEMPHIS   PTSUNNY   72  71  97 S6        30.06R
$$

ARZ050-053-066-070-073-291400-
SOUTHWEST ARKANSAS

CITY           SKY/WX    TMP DP  RH WIND       PRES   REMARKS
ARKADELPHIA    FAIR      70  70 100 NE3       30.03S
CAMDEN         PTSUNNY   72  66  83 CALM      30.03S
TEXARKANA      CLOUDY    70  69  97 E5        29.99F
EL DORADO      PTSUNNY   71  69  93 S3        30.04R
DE QUEEN       CLOUDY    70  68  93 E21       29.96F
$$

ARZ056-057-069-291400-
SOUTHEAST ARKANSAS

CITY           SKY/WX    TMP DP  RH WIND       PRES   REMARKS
PINE BLUFF     PTSUNNY   73  70  90 SE5       30.05R
STUTTGART      MOSUNNY   73  70  88 SE7       30.05R
MONTICELLO     PTSUNNY   71  70  96 S5        30.05R

$$




USA.gov is the U.S. government's official web portal to all federal, state and local government web resources and services.